Regional Weather Roundup
Issued by NWS Sterling, VA

Home | Current Version | Previous Version | Text Only | Print | Product List | Glossary Off
Versions: 1 2 3 4 5 6 7 8 9 10 11 12 13 14 15 16 17 18 19 20 21 22 23 24 25 26 27 28 29 30 31 32 33 34 35 36 37 38 39 40 41 42 43 44 45 46 47 48 49 50

000
ASUS41 KLWX 291810
RWRLWX

REGIONAL WEATHER ROUNDUP
NATIONAL WEATHER SERVICE BALTIMORE MD/WASHINGTON DC
200 PM EDT MON JUN 29 2015

Note: "FAIR" indicates few or no clouds below 12,000 feet
with no significant weather and/or obstructions to visibility.
 TC=TEMPERATURE CELSIUS

 * =Non NWS site. Station does not report precipitation (e.g. rain,
    snow, etc.), thunder, or fog.

DCZ001-MDZ009-015-VAZ040>042-051-053>054-291900-
WASHINGTON METRO

CITY           SKY/WX    TMP DP  RH WIND       PRES   REMARKS
WASHINGTON NAT MOSUNNY   81  57  43 S8        29.96F
DULLES         MOSUNNY   79  52  38 S8        29.96F
ANDREWS AFB    SUNNY     80  61  52 VRB3      29.96F
FT BELVOIR     SUNNY     80  54  40 SE8       29.96F
QUANTICO       MOSUNNY   80  56  43 S9        29.97F
COLLEGE PARK*  PTSUNNY   81  52  36 E3        29.95F
LEESBURG*      SUNNY     81  55  41 W5        29.97F
MANASSAS*      SUNNY     81  52  36 SW8         N/A
GAITHERSBURG*  MOSUNNY   79  55  44 W9        30.00S

$$

MDZ006>007-011-014-291900-
BALTIMORE METRO

CITY           SKY/WX    TMP DP  RH WIND       PRES   REMARKS
BWI AIRPORT    MOSUNNY   77  53  43 VRB6      29.95S
MD SCIENCE CTR   N/A     80  55  42 MISG      29.96S
MARTIN STATE   MOSUNNY   81  57  44 W6        29.96S
ANNAPOLIS      MOSUNNY   78  54  43 VRB3      29.95F
FORT MEADE*    MOSUNNY   77  54  44 W6        29.98F

$$

MDZ012-015-019>023-291900-
MARYLAND EASTERN SHORE

CITY           SKY/WX    TMP DP  RH WIND       PRES   REMARKS
OCEAN CITY     NOT AVBL
SALISBURY      MOSUNNY   79  56  45 W10       29.97S
BAY BRIDGE AP*   N/A     79  52  38 W5        29.96S
CAMBRIDGE*     SUNNY     79  54  41 W7        29.97S
EASTON*        MOSUNNY   81  57  44 SW9       30.00S

$$

MDZ017>025-291900-
SOUTHERN MARYLAND

CITY           SKY/WX    TMP DP  RH WIND       PRES   REMARKS
PATUXENT RIVER MOSUNNY   80  55  42 SW9       29.97S
ST INIGOES     SUNNY     79  51  37 NW5       29.97F
LEONARDTOWN*   SUNNY     79  52  38 SW7       29.99S

$$

MDZ003>005-291900-
NORTH CENTRAL MARYLAND

CITY           SKY/WX    TMP DP  RH WIND       PRES   REMARKS
FREDERICK*     PTSUNNY   81  63  54 W8        29.98F
HAGERSTOWN APT MOSUNNY   78  54  43 SW7       29.95F
WESTMINSTER*   MOSUNNY   79  61  53 NW7       29.97S

$$

MDZ501>502-291900-
WESTERN MARYLAND

CITY           SKY/WX    TMP DP  RH WIND       PRES   REMARKS
OAKLAND*       MOSUNNY   70  55  60 S8        30.03S
CUMBERLAND*    SUNNY     79  50  36 S9        29.99S

$$

VAZ025>031-291900-
SHENANDOAH VALLEY

CITY           SKY/WX    TMP DP  RH WIND       PRES   REMARKS
WINCHESTER*    MOSUNNY   81  52  36 S6        29.96F
FRONT ROYAL*   FAIR      79  54  41 SE8       29.95F
LURAY*         FAIR      81  52  36 S6        29.97F
NEW MARKET*    FAIR      78  53  41 S5        29.95S
STAUNTON*      PTSUNNY   80  53  39 S9        29.99F
WAYNESBORO*    CLOUDY    73  55  52 SE8       30.00S

$$

WVZ021-048>050-054>055-291900-
EASTERN WEST VIRGINIA PANHANDLE

CITY           SKY/WX    TMP DP  RH WIND       PRES   REMARKS
MARTINSBURG    SUNNY     78  53  41 CALM      29.96F
PETERSBURG*    PTSUNNY   79  44  28 E6        29.96F

$$

VAZ036>039-050-291900-
CENTRAL FOOTHILLS

CITY           SKY/WX    TMP DP  RH WIND       PRES   REMARKS
CHARLOTTESVILL PTSUNNY   79  53  40 S6        29.97F
CULPEPER*      MOSUNNY   80  51  36 S6        29.97F
ORANGE*        SUNNY     81  52  36 S9        29.99S
GORDONSVILLE*  FAIR      79  54  41 SW5       29.97F
WARRENTON*     FAIR      82  58  44 S5        29.97S

$$

VAZ055>057-291900-
NORTH AND CENTRAL PIEDMONT

CITY           SKY/WX    TMP DP  RH WIND       PRES   REMARKS
FREDERICKSBRG* SUNNY     83  50  31 S3        29.96F
STAFFORD*      SUNNY     79  51  36 SW6       30.01F

$$

NCZ024-NYZ072-PAZ021-071-VAZ022-071-291900-
OTHER REGIONAL OBSERVATIONS

CITY           SKY/WX    TMP DP  RH WIND       PRES   REMARKS
NEW YORK CITY  CLOUDY    74  56  53 W7        29.92S
PHILADELPHIA   MOSUNNY   78  54  43 W15       29.93F
PITTSBURGH     CLOUDY    75  50  41 S8        29.94F
ROANOKE        PTSUNNY   77  56  48 VRB6      30.01F
RICHMOND       MOSUNNY   82  53  36 CALM      29.98F
RALEIGH        MOSUNNY   83  60  45 VRB3      29.98F

$$

ANZ530>537-291900-
MARINE OBSERVATIONS

STATION/POSITION TIME  TEMP    WIND        PRES
                       AIR SEA DIR/SP/G
                 (UTC) (F)     (DEG/KT/KT) (MB)
THOMAS PT LIGHT  NOT AVBL
BALT KEY BRIDGE  1700   76     250/  7/ 10 1014.2F
COVE POINT       1700   76     300/  4/  8 1015.7F
LEWISETTA        1700   76 77   70/  4/  5 1015.1F
SOLOMONS ISLAND  1700      78                N/A
PINEY POINT      1700           10/  5/  6   N/A

$$



USA.gov is the U.S. government's official web portal to all federal, state and local government web resources and services.